Tracking 28126 objects as of 1-Oct-2023
HD Live streaming from Space Station
objects crossing your sky now

COSMOS 839 DEB

Track COSMOS 839 DEB now!
10-day predictions


NORAD ID: 10447
Int'l Code: 1976-067Y
Perigee: 961.4 km
Apogee: 2,092.4 km
Inclination: 65.9 °
Period: 116.4 minutes
Semi major axis: 7897 km
RCS: 0.0759 m2 (small)
Launch date: July 8, 1976
Source: Commonwealth of Independent States (former USSR) (CIS)
Launch site: PLESETSK MISSILE AND SPACE COMPLEX (PKMTR)

Note: This is SATELLITE DEBRIS
Your satellite tracking list
Your tracking list is empty




NASA's NSSDC Master Catalog

Two Line Element Set (TLE):
1 10447U 76067Y   23272.14706497 -.00000058  00000-0 -34729-5 0  9991
2 10447  65.8632 165.7208 0715961 253.2414 268.5312 12.36901041131534
Source of the keplerian elements: AFSPC